| time (UTC) | temp F | wind direction | speed knots | gust knots | rain 1hr in | rain 24hr in | rain mn in | humidity % | barometer mb |
| 20260505010052 | 48 | 210 | 3.5 | 8.7 | 0.00 | 0.00 | 0.00 | 82 | 1007.1 |
| 20260505004552 | 47 | 229 | 4.3 | 7.0 | 0.00 | 0.00 | 0.00 | 85 | 1007.1 |
| 20260505003152 | 48 | 206 | 2.6 | 6.1 | 0.00 | 0.00 | 0.00 | 82 | 1007.0 |
| 20260505001551 | 49 | 189 | 3.5 | 7.0 | 0.00 | 0.00 | 0.00 | 80 | 1006.8 |
| 20260505000050 | 49 | 177 | 5.2 | 9.6 | 0.00 | 0.00 | 0.00 | 79 | 1006.5 |
| 20260504234550 | 49 | 169 | 3.5 | 7.8 | 0.00 | 0.00 | 0.00 | 79 | 1006.3 |
| 20260504233058 | 50 | 174 | 4.3 | 6.1 | 0.00 | 0.00 | 0.00 | 78 | 1006.0 |
| 20260504231549 | 52 | 181 | 4.3 | 8.7 | 0.00 | 0.00 | 0.00 | 75 | 1005.8 |
| 20260504230048 | 54 | 187 | 0.9 | 4.3 | 0.00 | 0.00 | 0.00 | 73 | 1005.6 |
| 20260504224548 | 55 | 168 | 1.7 | 6.1 | 0.00 | 0.00 | 0.00 | 72 | 1005.4 |
| 20260504223054 | 56 | 172 | 3.5 | 5.2 | 0.00 | 0.00 | 0.00 | 70 | 1005.4 |
| 20260504221551 | 57 | 159 | 2.6 | 6.1 | 0.00 | 0.00 | 0.00 | 68 | 1005.4 |
| 20260504220104 | 58 | 197 | 1.7 | 5.2 | 0.00 | 0.00 | 0.00 | 66 | 1005.3 |
| 20260504214546 | 59 | 208 | 2.6 | 6.1 | 0.00 | 0.00 | 0.00 | 66 | 1005.1 |
| 20260504213055 | 60 | 197 | 1.7 | 7.0 | 0.00 | 0.00 | 0.00 | 62 | 1005.0 |
| 20260504211545 | 59 | 170 | 2.6 | 7.8 | 0.00 | 0.00 | 0.00 | 62 | 1005.2 |
| 20260504210047 | 60 | 178 | 1.7 | 8.7 | 0.00 | 0.00 | 0.00 | 61 | 1005.1 |
| 20260504204559 | 60 | 216 | 4.3 | 9.6 | 0.00 | 0.00 | 0.00 | 59 | 1004.9 |
| 20260504203044 | 59 | 192 | 3.5 | 8.7 | 0.00 | 0.00 | 0.00 | 58 | 1004.8 |
| 20260504201543 | 60 | 224 | 2.6 | 8.7 | 0.00 | 0.00 | 0.00 | 60 | 1004.9 |
| 20260504200044 | 59 | 189 | 5.2 | 7.8 | 0.00 | 0.02 | 0.00 | 65 | 1004.9 |
| 20260504194544 | 59 | 245 | 4.3 | 7.8 | 0.00 | 0.02 | 0.00 | 64 | 1004.9 |
| 20260504193038 | 58 | 182 | 5.2 | 7.8 | 0.00 | 0.02 | 0.00 | 66 | 1005.0 |
| 20260504191540 | 57 | 241 | 5.2 | 11.3 | 0.00 | 0.02 | 0.00 | 65 | 1005.3 |
| 20260504190038 | 56 | 245 | 4.3 | 11.3 | 0.00 | 0.06 | 0.00 | 66 | 1005.6 |
| 20260504184536 | 57 | 240 | 7.8 | 12.2 | 0.00 | 0.06 | 0.00 | 65 | 1005.7 |
| 20260504183033 | 54 | 245 | 5.2 | 13.0 | 0.00 | 0.06 | 0.00 | 67 | 1005.9 |
| 20260504181531 | 54 | 243 | 7.0 | 14.8 | 0.00 | 0.06 | 0.00 | 66 | 1005.7 |
| 20260504180031 | 54 | 233 | 6.1 | 14.8 | 0.00 | 0.14 | 0.00 | 66 | 1005.5 |
| 20260504174530 | 55 | 244 | 9.6 | 19.1 | 0.00 | 0.14 | 0.00 | 64 | 1005.2 |
| 20260504173030 | 54 | 211 | 7.0 | 15.6 | 0.00 | 0.14 | 0.00 | 66 | 1005.1 |
| 20260504171529 | 54 | 241 | 2.6 | 17.4 | 0.00 | 0.14 | 0.00 | 66 | 1005.2 |
| 20260504170127 | 53 | 187 | 7.8 | 14.8 | 0.00 | 0.14 | 0.00 | 69 | 1005.2 |
| 20260504081537 | 39 | 243 | 3.5 | 5.2 | 0.00 | 1.06 | 0.00 | 84 | 1006.6 |
| 20260504044558 | 40 | 270 | 4.3 | 8.7 | 0.00 | 1.19 | 1.19 | 81 | 1005.2 |
| 20260504043100 | 40 | 284 | 5.2 | 8.7 | 0.00 | 1.19 | 1.19 | 80 | 1005.2 |
| 20260504041557 | 40 | 273 | 5.2 | 9.6 | 0.00 | 1.19 | 1.19 | 81 | 1005.1 |
| 20260504040055 | 40 | 262 | 4.3 | 8.7 | 0.00 | 1.19 | 1.19 | 80 | 1005.0 |
| 20260504034553 | 41 | 296 | 7.0 | 11.3 | 0.00 | 1.19 | 1.19 | 76 | 1004.9 |
| 20260504033053 | 41 | 273 | 7.8 | 13.0 | 0.00 | 1.19 | 1.19 | 75 | 1004.7 |
| 20260504031552 | 41 | 276 | 7.0 | 11.3 | 0.00 | 1.19 | 1.19 | 75 | 1004.6 |
| 20260504030049 | 41 | 285 | 7.0 | 12.2 | 0.00 | 1.19 | 1.19 | 74 | 1004.4 |
| 20260504024552 | 42 | 300 | 6.1 | 12.2 | 0.00 | 1.19 | 1.19 | 75 | 1004.3 |
| 20260504023048 | 42 | 292 | 7.0 | 13.0 | 0.00 | 1.19 | 1.19 | 74 | 1004.2 |
| 20260504021547 | 42 | 296 | 7.0 | 12.2 | 0.00 | 1.19 | 1.19 | 75 | 1004.3 |
| 20260504020126 | 43 | 316 | 8.7 | 15.6 | 0.00 | 1.19 | 1.19 | 75 | 1004.1 |
| 20260504014559 | 43 | 287 | 9.6 | 15.6 | 0.00 | 1.19 | 1.19 | 75 | 1004.0 |
| 20260504013055 | 43 | 286 | 9.6 | 15.6 | 0.00 | 1.19 | 1.19 | 78 | 1003.7 |
| 20260504011546 | 43 | 305 | 7.8 | 14.8 | 0.00 | 1.19 | 1.19 | 81 | 1003.4 |